Wind_Speed
19 21 23 24 27 29 32 33 36 39 42 45 48 51 54 57 60 62 63 63 63 60 57 53 50 47 46 44 44 44 45 45 52 51 49 45 41 38 38 45 38 36 28
19 21 23 26 28 31 34 36 40 43 47 50 52 52 54 58 62 61 62 61 58 54 48 45 45 46 46 46 46 46 46 46 49 52 48 48 46 39 37 38 34 31 41
23 25 27 30 33 36 38 43 46 49 50 49 53 56 57 59 60 59 57 54 50 46 46 47 47 48 50 49 49 48 47 48 48 52 52 45 39 39 43 43 37 37 33
25 27 29 34 37 41 43 47 48 49 52 54 55 57 56 54 54 53 48 46 46 47 48 50 51 54 56 57 59 58 55 52 49 51 52 51 43 37 35 36 36 32 30
30 34 38 43 44 44 47 49 51 52 52 54 55 53 51 49 44 41 41 43 47 49 52 55 58 60 62 63 65 65 63 62 57 54 52 52 47 35 41 37 35 29 30
43 44 42 41 41 44 47 51 52 53 54 53 50 48 45 40 36 37 41 46 49 52 54 52 52 53 54 54 56 56 56 57 57 55 54 53 48 38 31 34 33 35 25
39 39 41 42 43 45 47 50 52 51 49 48 44 40 38 35 36 41 45 48 50 47 44 48 50 48 47 47 47 48 46 45 46 48 52 51 49 42 34 32 34 34 28
37 38 39 40 42 45 48 48 48 47 46 41 37 36 35 35 38 42 45 45 41 42 47 47 45 42 39 38 39 39 40 41 41 41 44 44 46 43 41 34 32 32 31
34 36 39 42 45 47 45 45 43 41 36 30 32 33 34 36 39 40 39 36 40 42 39 36 35 36 33 31 34 29 25 27 30 36 39 40 41 44 45 38 37 35 31
36 39 42 44 44 42 39 38 33 29 30 33 29 30 32 34 34 34 31 35 37 37 33 27 25 25 25 24 21 20 22 14 18 23 24 24 27 35 41 42 38 37 31
39 40 40 40 37 36 35 35 27 29 26 25 26 27 31 35 34 28 28 31 32 30 25 21 17 18 20 21 20 19 16 12 14 22 26 30 23 31 33 34 37 37 32
37 37 36 33 33 34 33 22 22 23 23 23 24 27 30 30 25 23 26 24 22 23 22 19 19 24 21 18 17 20 24 19 16 23 25 27 28 29 30 33 29 33 35
29 28 25 24 25 23 15 17 18 25 24 24 28 30 25 17 20 23 17 12 16 18 19 21 21 29 30 17 17 15 17 17 18 21 25 26 26 26 29 25 31 31 35
17 18 18 17 16 15 16 19 22 22 22 24 27 26 13 15 18 13 13 12 9 15 18 18 22 23 26 31 32 32 9 3 17 11 17 17 23 27 30 29 29 32 36
16 18 16 17 16 14 17 19 22 23 24 26 25 9 10 13 10 12 18 24 21 21 19 17 23 24 29 29 26 24 35 8 11 7 20 16 19 32 33 31 32 34 39
17 15 15 13 14 16 18 18 23 26 24 18 2 3 5 10 14 20 22 22 19 17 22 25 28 25 24 29 26 17 33 31 31 7 2 7 12 26 33 36 39 37 34
11 6 10 13 12 17 23 22 16 13 5 3 5 10 11 10 17 16 20 20 22 24 26 27 29 29 24 14 18 25 32 30 29 28 39 27 37 34 39 36 32 38 28
10 6 11 11 16 19 21 19 14 11 11 7 7 6 6 10 15 14 21 18 16 21 24 26 27 28 29 23 20 29 26 30 32 30 30 29 33 34 33 41 41 42 33
10 6 9 13 18 18 20 20 14 10 11 8 7 5 4 6 13 14 8 5 20 19 19 23 23 19 22 22 27 23 21 29 31 27 26 26 28 37 37 38 40 35 33
13 9 9 12 15 14 15 17 16 10 7 8 10 6 4 8 7 11 10 17 18 17 14 15 17 12 17 21 19 28 28 24 29 29 27 27 29 28 27 27 28 28 25
17 14 6 7 9 9 8 11 12 13 6 5 8 10 12 7 5 6 20 16 14 15 9 15 12 8 13 14 19 21 23 31 24 18 21 23 19 22 20 18 16 17 17
13 15 12 8 4 10 11 5 7 6 6 3 5 4 9 4 3 8 13 17 13 9 15 19 21 19 11 22 18 18 15 21 25 22 18 17 18 16 14 12 12 10 9
12 12 14 12 6 8 8 10 6 9 7 5 4 6 3 2 2 14 16 23 10 13 14 20 13 11 11 10 14 16 14 16 17 21 19 16 13 12 11 10 10 8 8
10 10 11 12 13 10 7 7 8 7 8 2 1 3 5 7 4 15 18 26 15 14 13 14 11 12 14 12 13 15 16 17 17 18 19 17 15 11 9 9 9 9 8
12 11 11 10 10 11 12 6 5 8 6 2 1 2 3 6 10 14 5 11 16 15 12 6 4 3 6 6 8 10 12 13 12 13 13 15 14 12 10 6 5 5 4
11 12 12 12 11 10 9 10 10 6 5 5 3 6 5 5 8 6 8 9 20 16 15 14 9 7 2 1 2 4 5 6 8 9 9 10 10 11 9 8 4 1 3
Wind_Direction
238 242 248 253 259 262 266 270 272 275 279 282 286 288 290 293 293 292 293 295 295 294 292 289 287 284 282 280 279 278 277 276 277 277 273 273 273 274 267 259 263 250 248
248 252 257 260 266 270 274 278 282 285 287 289 291 292 292 291 292 293 294 295 296 294 292 290 288 287 285 283 281 279 277 273 272 274 273 268 265 266 270 266 271 267 244
261 266 271 274 277 280 283 286 288 289 289 291 292 292 292 292 293 293 296 297 294 295 295 292 291 290 288 286 284 280 276 274 271 270 271 268 263 258 261 263 270 270 259
261 263 269 273 276 278 282 287 287 288 292 293 294 294 296 297 297 300 300 299 297 295 293 291 289 287 286 286 284 281 278 275 273 269 266 264 257 252 259 265 262 266 258
281 283 284 284 282 284 288 289 289 291 292 295 297 298 298 299 301 300 298 294 292 291 291 291 289 286 284 282 280 278 275 272 268 266 263 258 254 250 251 256 262 269 257
282 285 288 286 288 289 290 291 292 294 296 297 297 297 298 296 298 297 293 294 296 297 296 296 297 293 288 284 280 276 274 270 263 259 257 253 247 241 242 252 253 256 255
284 287 285 287 290 292 293 294 295 296 296 297 296 298 298 298 298 297 299 300 301 304 308 308 308 306 300 294 288 283 277 268 261 254 251 246 241 233 235 237 241 247 251
286 286 289 292 293 293 294 296 295 295 297 295 296 298 296 299 300 302 302 301 307 313 310 309 306 303 303 301 292 283 280 273 258 245 242 238 234 226 228 237 238 239 244
291 293 293 294 295 298 298 297 296 296 297 292 295 295 297 299 302 306 305 314 316 314 310 309 304 300 303 302 291 289 292 288 269 244 234 231 225 225 220 229 237 243 238
294 295 296 296 298 298 298 301 299 295 296 294 292 294 299 305 308 311 313 314 313 311 320 324 323 318 313 300 294 301 296 289 259 241 222 223 224 224 227 230 231 237 239
295 296 295 295 296 298 298 299 294 294 300 297 296 301 304 310 310 310 311 311 318 329 336 339 342 342 332 320 293 299 314 302 246 215 218 207 219 218 220 222 225 227 221
295 295 295 297 298 296 296 293 294 297 297 300 310 316 315 315 311 307 312 324 333 337 335 335 340 345 321 315 291 295 300 284 258 242 233 224 224 222 226 221 218 218 209
293 296 302 300 304 313 311 297 291 300 301 305 317 319 321 315 320 319 324 337 348 20 32 33 38 42 39 17 300 269 293 294 264 252 240 237 234 223 211 203 200 209 202
301 310 305 313 318 317 314 308 305 305 307 310 312 320 321 322 321 343 346 331 100 34 56 31 34 34 30 30 30 32 360 190 273 247 231 242 217 219 219 213 210 197 188
312 315 319 327 322 321 317 309 304 308 309 314 318 323 352 351 42 42 82 81 77 61 36 7 56 28 44 35 42 41 42 62 109 181 230 215 226 226 209 198 192 185 189
316 329 337 322 315 311 311 313 312 308 308 316 6 47 19 73 84 103 87 83 62 59 48 60 41 36 36 45 41 34 57 50 39 68 197 213 95 154 170 175 177 182 179
330 5 344 324 333 328 322 332 338 327 49 115 107 79 77 71 117 108 103 86 67 60 57 53 44 32 21 36 46 42 48 54 64 60 59 85 90 135 151 163 169 177 180
7 6 360 7 3 7 17 23 51 83 96 73 59 74 108 112 140 126 117 106 94 75 62 54 46 38 37 16 57 68 68 53 58 71 72 76 78 97 133 147 147 164 173
11 5 14 21 15 29 26 31 53 97 86 75 41 3 126 124 153 158 126 133 94 86 71 63 55 33 32 28 36 52 41 87 61 65 72 80 86 107 120 123 130 130 132
8 28 33 21 16 35 36 44 45 86 111 63 49 41 121 156 185 183 140 95 94 95 81 73 50 40 57 77 53 49 62 54 51 66 63 82 96 102 113 115 116 125 129
357 21 10 22 14 17 24 36 55 52 71 81 64 60 52 46 183 150 153 141 138 85 65 97 72 76 74 69 71 76 58 71 62 66 73 82 89 103 117 118 113 120 130
4 10 27 29 12 8 20 336 357 5 13 25 109 107 70 40 43 159 169 165 132 59 57 73 57 74 25 32 36 81 62 58 63 62 78 77 85 100 111 115 122 127 130
357 6 13 22 23 345 356 13 3 9 22 99 172 162 169 8 355 178 183 174 157 113 136 127 118 93 86 63 55 63 72 64 61 73 70 82 90 91 98 119 133 128 132
354 356 3 9 14 11 352 348 4 4 30 117 91 150 201 215 139 161 184 176 173 184 107 125 141 114 107 80 64 61 65 65 61 60 78 70 75 79 87 110 136 152 155
356 359 358 355 0 3 7 4 350 352 10 27 260 236 264 222 233 220 217 166 190 200 202 176 193 119 97 77 62 52 55 55 53 50 61 72 61 60 65 74 105 139 199
351 351 354 356 356 353 352 354 1 335 318 358 290 278 287 260 219 209 209 192 192 208 219 232 228 244 199 318 10 34 40 48 48 49 47 67 52 50 48 44 32 234 257
Height
3080 3082 3084 3086 3087 3088 3088 3087 3085 3084 3082 3079 3077 3073 3069 3066 3063 3059 3055 3050 3045 3040 3036 3032 3030 3028 3026 3025 3025 3025 3024 3022 3015 3015 3018 3021 3024 3025 3028 3028 3030 3031 3035
3077 3078 3080 3081 3082 3082 3081 3080 3077 3075 3072 3068 3064 3060 3057 3055 3051 3046 3042 3037 3030 3026 3023 3020 3017 3015 3013 3012 3012 3011 3009 3009 3007 3001 3005 3008 3011 3015 3016 3017 3019 3021 3022
3074 3075 3075 3075 3074 3073 3072 3070 3067 3063 3060 3057 3054 3051 3047 3044 3039 3033 3028 3021 3017 3013 3010 3006 3004 3002 2998 2997 2995 2995 2995 2994 2994 2991 2989 2994 2997 3002 3004 3006 3010 3010 3013
3070 3070 3070 3069 3068 3066 3063 3060 3056 3053 3049 3046 3042 3038 3033 3028 3023 3018 3012 3008 3004 3000 2997 2994 2991 2987 2983 2980 2978 2977 2978 2979 2980 2978 2977 2979 2985 2991 2992 2995 2999 3002 3004
3064 3062 3061 3059 3056 3054 3051 3047 3044 3041 3039 3034 3029 3025 3020 3016 3012 3007 3003 2999 2994 2990 2987 2981 2977 2971 2966 2963 2958 2957 2957 2958 2962 2962 2963 2965 2971 2977 2982 2988 2990 2995 2996
3055 3053 3051 3049 3046 3043 3040 3036 3033 3030 3025 3021 3017 3013 3009 3006 3004 3000 2995 2988 2983 2976 2971 2965 2958 2952 2947 2943 2939 2936 2936 2935 2939 2942 2945 2949 2958 2966 2971 2977 2982 2984 2988
3046 3043 3041 3039 3036 3032 3029 3026 3022 3017 3013 3009 3005 3002 2999 2997 2994 2989 2983 2975 2969 2963 2956 2949 2942 2936 2930 2925 2921 2918 2916 2917 2918 2923 2926 2934 2943 2955 2963 2965 2970 2974 2980
3037 3035 3032 3029 3027 3023 3019 3015 3010 3005 3002 2998 2996 2993 2990 2989 2984 2978 2971 2965 2958 2953 2946 2937 2931 2924 2919 2914 2908 2904 2902 2901 2902 2906 2909 2919 2928 2939 2948 2956 2961 2965 2970
3028 3026 3023 3020 3016 3012 3007 3002 2998 2995 2992 2989 2987 2985 2982 2979 2975 2968 2960 2954 2949 2943 2936 2930 2922 2914 2910 2905 2899 2895 2892 2892 2893 2894 2897 2905 2916 2926 2935 2944 2950 2956 2962
3020 3016 3012 3008 3004 3001 2997 2993 2989 2986 2984 2981 2980 2977 2974 2969 2965 2958 2952 2948 2942 2935 2929 2921 2915 2908 2904 2900 2897 2893 2888 2887 2887 2889 2894 2901 2909 2917 2926 2932 2941 2947 2956
3010 3006 3002 2998 2995 2991 2989 2985 2983 2980 2978 2975 2973 2971 2967 2961 2955 2951 2948 2942 2935 2929 2924 2917 2912 2907 2903 2899 2895 2891 2888 2888 2887 2888 2891 2896 2901 2909 2916 2923 2931 2938 2947
3001 2997 2993 2990 2987 2983 2980 2978 2976 2974 2971 2969 2967 2964 2958 2953 2949 2947 2943 2937 2933 2928 2923 2917 2913 2907 2901 2896 2892 2890 2887 2884 2884 2886 2887 2891 2895 2901 2908 2914 2922 2931 2939
2993 2989 2987 2984 2980 2976 2974 2973 2971 2969 2966 2964 2960 2956 2952 2949 2946 2942 2938 2935 2935 2930 2923 2918 2915 2908 2902 2895 2890 2888 2884 2880 2879 2879 2882 2887 2891 2896 2901 2906 2916 2925 2935
2987 2985 2982 2979 2976 2973 2971 2968 2966 2963 2961 2958 2954 2951 2948 2946 2943 2939 2936 2935 2935 2932 2927 2922 2918 2913 2907 2901 2895 2888 2882 2878 2874 2875 2878 2879 2883 2889 2896 2904 2911 2921 2932
2985 2982 2978 2975 2972 2970 2968 2965 2962 2958 2954 2951 2950 2948 2947 2944 2942 2941 2940 2939 2937 2934 2930 2925 2921 2917 2912 2907 2899 2893 2886 2882 2878 2875 2873 2875 2881 2882 2889 2900 2909 2919 2927
2981 2978 2974 2972 2970 2968 2966 2962 2956 2950 2949 2948 2946 2947 2946 2944 2944 2945 2944 2943 2940 2937 2933 2930 2926 2923 2918 2914 2908 2900 2895 2890 2884 2879 2877 2876 2871 2875 2884 2897 2909 2917 2927
2978 2976 2974 2972 2970 2966 2959 2953 2951 2947 2947 2946 2947 2948 2948 2947 2948 2948 2948 2947 2945 2942 2940 2935 2934 2931 2927 2915 2911 2910 2904 2899 2896 2892 2886 2877 2871 2881 2888 2901 2912 2922 2930
2977 2974 2973 2971 2967 2962 2958 2954 2950 2949 2949 2950 2950 2950 2948 2948 2950 2951 2954 2951 2948 2947 2943 2941 2942 2941 2937 2926 2918 2915 2913 2910 2905 2904 2904 2900 2900 2897 2900 2910 2916 2926 2934
2977 2975 2973 2971 2968 2964 2962 2958 2955 2954 2954 2954 2953 2952 2952 2952 2952 2953 2955 2952 2951 2950 2947 2947 2946 2945 2943 2938 2928 2923 2916 2916 2916 2914 2912 2914 2916 2918 2920 2924 2929 2937 2941
2977 2974 2972 2972 2970 2967 2965 2962 2960 2958 2957 2956 2954 2953 2953 2954 2956 2957 2956 2955 2954 2953 2949 2949 2948 2948 2947 2942 2938 2935 2933 2928 2924 2924 2923 2925 2928 2932 2935 2936 2939 2944 2950
2978 2975 2973 2972 2971 2969 2967 2965 2963 2962 2959 2958 2957 2956 2955 2956 2957 2958 2959 2958 2957 2954 2954 2952 2951 2952 2948 2946 2944 2941 2935 2934 2936 2935 2936 2937 2938 2941 2943 2946 2948 2953 2956
2980 2976 2973 2972 2970 2969 2967 2965 2964 2963 2961 2959 2959 2958 2957 2957 2958 2958 2959 2960 2960 2958 2956 2949 2952 2957 2953 2951 2948 2950 2948 2945 2943 2943 2942 2943 2945 2946 2949 2952 2954 2957 2960
2980 2977 2975 2972 2970 2968 2967 2965 2964 2962 2961 2960 2959 2958 2958 2958 2958 2958 2959 2960 2959 2956 2958 2955 2957 2961 2961 2960 2958 2956 2954 2953 2952 2952 2952 2952 2952 2952 2954 2956 2958 2961 2964
2980 2978 2975 2973 2971 2968 2967 2965 2964 2962 2961 2961 2959 2959 2959 2959 2959 2957 2958 2962 2961 2957 2955 2959 2959 2961 2963 2964 2963 2962 2960 2960 2960 2959 2957 2958 2958 2959 2960 2960 2962 2964 2966
2979 2977 2975 2973 2971 2969 2967 2965 2964 2962 2961 2961 2959 2958 2958 2958 2958 2958 2958 2959 2958 2960 2962 2961 2963 2966 2966 2966 2967 2966 2965 2965 2965 2964 2964 2963 2963 2963 2963 2964 2965 2966 2966
2979 2977 2974 2972 2970 2969 2967 2965 2963 2961 2960 2960 2959 2957 2957 2957 2957 2957 2957 2957 2959 2961 2962 2963 2964 2965 2967 2968 2968 2968 2968 2968 2968 2968 2968 2966 2966 2966 2966 2966 2966 2966 2967